Hourly Weather Rudarpur

Today, 16 April, Friday

Time Temperature Precipitation Wind Pressure Humidity
00:00 +34°C° 0 mm 3 mps 746 mmHg 13%
01:00 +33°C° 0 mm 3 mps 746 mmHg 13%
02:00 +31°C° 0 mm 3 mps 746 mmHg 14%
03:00 +31°C° 0 mm 3 mps 746 mmHg 14%
04:00 +30°C° 0 mm 2 mps 746 mmHg 15%
05:00 +29°C° 0 mm 2 mps 746 mmHg 17%
06:00 +28°C° 0 mm 1 mps 747 mmHg 17%
07:00 +31°C° 0 mm 2 mps 748 mmHg 15%
08:00 +34°C° 0 mm 2 mps 748 mmHg 13%
09:00 +37°C° 0 mm 2 mps 749 mmHg 11%
10:00 +39°C° 0 mm 3 mps 748 mmHg 10%
11:00 +42°C° 0 mm 3 mps 748 mmHg 8%
12:00 +45°C° 0 mm 4 mps 748 mmHg 6%
13:00 +45°C° 0 mm 4 mps 747 mmHg 6%
14:00 +47°C° 0 mm 5 mps 746 mmHg 6%
15:00 +47°C° 0 mm 5 mps 745 mmHg 5%
16:00 +46°C° 0 mm 5 mps 745 mmHg 6%
17:00 +46°C° 0 mm 5 mps 744 mmHg 6%
18:00 +44°C° 0 mm 4 mps 744 mmHg 6%
19:00 +42°C° 0 mm 3 mps 745 mmHg 7%
20:00 +38°C° 0 mm 2 mps 745 mmHg 8%
21:00 +35°C° 0 mm 1 mps 746 mmHg 9%
22:00 +36°C° 0 mm 2 mps 746 mmHg 10%
23:00 +35°C° 0 mm 2 mps 746 mmHg 10%

Tomorrow, 17 April, Saturday

Time Temperature Precipitation Wind Pressure Humidity
00:00 +34°C° 0 mm 2 mps 746 mmHg 11%
01:00 +34°C° 0 mm 2 mps 746 mmHg 11%
02:00 +32°C° 0 mm 2 mps 746 mmHg 12%
03:00 +32°C° 0 mm 1 mps 746 mmHg 12%
04:00 +31°C° 0 mm 1 mps 746 mmHg 13%
05:00 +31°C° 0 mm 1 mps 746 mmHg 14%
06:00 +30°C° 0 mm 1 mps 747 mmHg 14%
07:00 +32°C° 0 mm 2 mps 748 mmHg 13%
08:00 +35°C° 0 mm 2 mps 748 mmHg 12%
09:00 +37°C° 0 mm 3 mps 749 mmHg 11%
10:00 +39°C° 0 mm 2 mps 749 mmHg 10%
11:00 +41°C° 0 mm 2 mps 748 mmHg 9%
12:00 +43°C° 0 mm 1 mps 748 mmHg 8%
13:00 +45°C° 0 mm 2 mps 747 mmHg 8%
14:00 +45°C° 0 mm 4 mps 746 mmHg 8%
15:00 +47°C° 0 mm 5 mps 745 mmHg 8%
16:00 +46°C° 0 mm 6 mps 745 mmHg 9%
17:00 +45°C° 0 mm 6 mps 745 mmHg 10%
18:00 +44°C° 0 mm 7 mps 745 mmHg 10%
19:00 +41°C° 0 mm 6 mps 746 mmHg 13%
20:00 +38°C° 0 mm 4 mps 746 mmHg 16%
21:00 +36°C° 0 mm 3 mps 747 mmHg 19%
22:00 +35°C° 0 mm 3 mps 747 mmHg 20%
23:00 +34°C° 0 mm 3 mps 747 mmHg 21%

Day after tomorrow, 18 April, Sunday

Time Temperature Precipitation Wind Pressure Humidity
00:00 +33°C° 0 mm 3 mps 747 mmHg 22%
01:00 +33°C° 0 mm 3 mps 747 mmHg 24%
02:00 +31°C° 0 mm 2 mps 747 mmHg 25%
03:00 +30°C° 0 mm 2 mps 747 mmHg 26%
04:00 +30°C° 0 mm 2 mps 747 mmHg 27%
05:00 +29°C° 0 mm 1 mps 748 mmHg 28%
06:00 +29°C° 0 mm 1 mps 748 mmHg 28%
07:00 +32°C° 0 mm 2 mps 748 mmHg 24%
08:00 +35°C° 0 mm 2 mps 749 mmHg 20%
09:00 +38°C° 0 mm 3 mps 750 mmHg 17%
10:00 +41°C° 0 mm 4 mps 749 mmHg 14%
11:00 +42°C° 0 mm 6 mps 749 mmHg 11%
12:00 +45°C° 0 mm 7 mps 748 mmHg 8%
13:00 +45°C° 0 mm 7 mps 747 mmHg 8%
14:00 +45°C° 0 mm 7 mps 746 mmHg 7%
15:00 +46°C° 0 mm 7 mps 745 mmHg 7%
16:00 +45°C° 0 mm 7 mps 745 mmHg 7%
17:00 +44°C° 0 mm 7 mps 745 mmHg 7%
18:00 +44°C° 0 mm 7 mps 744 mmHg 7%
19:00 +41°C° 0 mm 6 mps 745 mmHg 9%
20:00 +37°C° 0 mm 5 mps 746 mmHg 11%
21:00 +35°C° 0 mm 4 mps 746 mmHg 13%
22:00 +34°C° 0 mm 4 mps 746 mmHg 13%
23:00 +34°C° 0 mm 4 mps 746 mmHg 14%

19 April, Monday

Time Temperature Precipitation Wind Pressure Humidity
00:00 +33°C° 0 mm 4 mps 746 mmHg 15%
01:00 +32°C° 0 mm 4 mps 746 mmHg 15%
02:00 +30°C° 0 mm 4 mps 746 mmHg 16%
03:00 +30°C° 0 mm 4 mps 745 mmHg 17%
04:00 +29°C° 0 mm 3 mps 745 mmHg 17%
05:00 +29°C° 0 mm 3 mps 746 mmHg 18%
06:00 +28°C° 0 mm 3 mps 746 mmHg 18%
07:00 +31°C° 0 mm 3 mps 746 mmHg 16%
08:00 +35°C° 0 mm 4 mps 747 mmHg 13%
09:00 +37°C° 0 mm 4 mps 747 mmHg 11%
10:00 +41°C° 0 mm 5 mps 747 mmHg 9%
11:00 +44°C° 0 mm 6 mps 747 mmHg 8%
12:00 +46°C° 0 mm 7 mps 746 mmHg 6%
13:00 +46°C° 0 mm 7 mps 745 mmHg 6%
14:00 +48°C° 0 mm 8 mps 745 mmHg 5%
15:00 +48°C° 0 mm 8 mps 744 mmHg 5%
16:00 +47°C° 0 mm 7 mps 743 mmHg 5%
17:00 +46°C° 0 mm 7 mps 743 mmHg 5%
18:00 +45°C° 0 mm 6 mps 743 mmHg 5%
19:00 +42°C° 0 mm 5 mps 743 mmHg 6%
20:00 +38°C° 0 mm 4 mps 744 mmHg 7%
21:00 +36°C° 0 mm 2 mps 744 mmHg 8%
22:00 +35°C° 0 mm 2 mps 744 mmHg 8%
23:00 +34°C° 0 mm 3 mps 744 mmHg 9%

20 April, Tuesday

Time Temperature Precipitation Wind Pressure Humidity
00:00 +33°C° 0 mm 3 mps 744 mmHg 9%
01:00 +33°C° 0 mm 3 mps 744 mmHg 10%
02:00 +31°C° 0 mm 3 mps 744 mmHg 10%
03:00 +31°C° 0 mm 3 mps 744 mmHg 11%
04:00 +30°C° 0 mm 3 mps 744 mmHg 12%
05:00 +29°C° 0 mm 3 mps 744 mmHg 13%
06:00 +28°C° 0 mm 2 mps 744 mmHg 15%
07:00 +30°C° 0 mm 2 mps 745 mmHg 13%
08:00 +34°C° 0 mm 2 mps 746 mmHg 11%
09:00 +36°C° 0 mm 2 mps 747 mmHg 9%
10:00 +39°C° 0 mm 2 mps 746 mmHg 7%
11:00 +41°C° 0 mm 1 mps 746 mmHg 6%
12:00 +44°C° 0 mm 1 mps 746 mmHg 5%
13:00 +46°C° 0 mm 2 mps 745 mmHg 5%
14:00 +46°C° 0 mm 2 mps 744 mmHg 4%
15:00 +47°C° 0 mm 3 mps 743 mmHg 4%
16:00 +46°C° 0 mm 2 mps 743 mmHg 5%
17:00 +45°C° 0 mm 2 mps 743 mmHg 5%
18:00 +44°C° 0 mm 1 mps 743 mmHg 5%
19:00 +42°C° 0 mm 1 mps 743 mmHg 6%
20:00 +39°C° 0 mm 1 mps 744 mmHg 7%
21:00 +36°C° 0 mm 1 mps 744 mmHg 7%
22:00 +36°C° 0 mm 1 mps 744 mmHg 8%
23:00 +35°C° 0 mm 1 mps 744 mmHg 8%

21 April, Wednesday

Time Temperature Precipitation Wind Pressure Humidity
00:00 +35°C° 0 mm 1 mps 744 mmHg 8%
01:00 +34°C° 0 mm 1 mps 744 mmHg 8%
02:00 +34°C° 0 mm 1 mps 744 mmHg 9%
03:00 +33°C° 0 mm 1 mps 744 mmHg 9%
04:00 +33°C° 0 mm 1 mps 744 mmHg 10%
05:00 +32°C° 0 mm 2 mps 745 mmHg 10%
06:00 +31°C° 0 mm 3 mps 746 mmHg 11%
07:00 +34°C° 0 mm 4 mps 746 mmHg 18%
08:00 +35°C° 0 mm 4 mps 747 mmHg 25%
09:00 +37°C° 0 mm 4 mps 748 mmHg 32%
10:00 +40°C° 0 mm 5 mps 748 mmHg 28%
11:00 +42°C° 0 mm 5 mps 748 mmHg 24%
12:00 +45°C° 0 mm 5 mps 748 mmHg 20%
13:00 +44°C° 0 mm 4 mps 747 mmHg 17%
14:00 +45°C° 0 mm 3 mps 746 mmHg 15%
15:00 +46°C° 0 mm 3 mps 745 mmHg 13%
16:00 +45°C° 0 mm 2 mps 745 mmHg 13%
17:00 +45°C° 0 mm 2 mps 745 mmHg 13%
18:00 +43°C° 0 mm 2 mps 745 mmHg 14%
19:00 +40°C° 0 mm 2 mps 745 mmHg 20%
20:00 +36°C° 0 mm 2 mps 746 mmHg 26%
21:00 +33°C° 0 mm 3 mps 747 mmHg 32%
22:00 +32°C° 0 mm 2 mps 747 mmHg 32%
23:00 +32°C° 0 mm 1 mps 747 mmHg 31%
Show more